Location: �perlecques
(50.8057°N, 2.1521°E)
Time: 19:01:21
(UTC+00:00)

Vanguard 3 - Pass Details

Date: 05 August 2021
Orbit: 510 x 3260 km, 33.3° (Epoch: 17 September)

Event Time Altitude Azimuth Distance (km) Brightness Sun altitude
Rises 21:50:47 0° 271° (W) 6,547 12.2 -17.0°
Reaches altitude 10° 21:55:47 10° 261° (W) 5,820 11.7 -17.4°
Maximum altitude 22:09:58 28° 212° (SSW) 4,822 10.8 -18.5°
Enters shadow 22:19:24 19° 176° (S) 5,308 10.7 -19.1°
